Time,TemperatureF,DewpointF,PressureIn,WindDirection,WindDirectionDegrees,WindSpeedMPH,WindSpeedGustMPH,Humidity,HourlyPrecipIn,Conditions,Clouds,dailyrainin,SoftwareType,DateUTC
2013-10-03 00:04:00,64.8,64.2,30.03,NNW,330,0.0,0.0,98,0.00,CLR,FEW,0.00,WeatherDisplay:10.37,2013-10-03 04:04:00,
2013-10-03 00:09:00,64.9,64.4,30.03,NNW,330,0.0,0.0,98,0.00,CLR,FEW,0.00,WeatherDisplay:10.37,2013-10-03 04:09:00,
2013-10-03 00:14:00,64.9,64.4,30.03,NNW,330,0.0,0.0,98,0.00,CLR,FEW,0.00,WeatherDisplay:10.37,2013-10-03 04:14:00,
2013-10-03 00:19:00,64.8,64.2,30.03,NNW,330,0.0,0.0,98,0.00,CLR,FEW,0.00,WeatherDisplay:10.37,2013-10-03 04:19:00,
2013-10-03 00:29:00,64.8,64.2,30.03,NNW,330,0.0,0.0,98,0.00,CLR,FEW,0.00,WeatherDisplay:10.37,2013-10-03 04:29:00,
2013-10-03 00:39:00,64.6,64.0,30.03,NNW,330,0.0,0.0,98,0.00,CLR,FEW,0.00,WeatherDisplay:10.37,2013-10-03 04:39:00,
2013-10-03 00:49:00,64.6,64.0,30.03,NNW,330,0.0,0.0,98,0.00,CLR,FEW,0.00,WeatherDisplay:10.37,2013-10-03 04:49:00,
2013-10-03 00:59:00,64.8,64.2,30.03,NNW,330,0.0,0.0,98,0.00,CLR,FEW,0.00,WeatherDisplay:10.37,2013-10-03 04:59:00,
2013-10-03 01:04:00,64.8,64.2,30.00,NNW,330,0.0,0.0,98,0.00,CLR,FEW,0.00,WeatherDisplay:10.37,2013-10-03 05:04:00,
2013-10-03 01:09:00,64.8,64.2,30.00,NNW,330,0.0,0.0,98,0.00,CLR,FEW,0.00,WeatherDisplay:10.37,2013-10-03 05:09:00,
2013-10-03 01:19:00,64.6,64.0,30.00,NNW,330,0.0,0.0,98,0.00,CLR,FEW,0.00,WeatherDisplay:10.37,2013-10-03 05:19:00,
2013-10-03 01:29:00,64.6,64.0,30.00,NNW,330,0.0,0.0,98,0.00,CLR,FEW,0.00,WeatherDisplay:10.37,2013-10-03 05:29:00,
2013-10-03 01:39:00,64.4,63.8,30.00,NNW,330,0.0,0.0,98,0.00,CLR,FEW,0.00,WeatherDisplay:10.37,2013-10-03 05:39:00,
2013-10-03 01:49:00,64.4,63.8,30.00,NNW,330,0.0,0.0,98,0.00,CLR,FEW,0.00,WeatherDisplay:10.37,2013-10-03 05:49:00,
2013-10-03 01:59:00,64.4,64.1,30.00,NNW,330,0.0,0.0,99,0.00,CLR,FEW,0.00,WeatherDisplay:10.37,2013-10-03 05:59:00,
2013-10-03 02:04:00,64.4,64.1,30.00,NNW,330,0.0,0.0,99,0.00,CLR,FEW,0.00,WeatherDisplay:10.37,2013-10-03 06:04:00,
2013-10-03 02:09:00,64.6,64.3,30.00,NNW,330,0.0,0.0,99,0.00,CLR,FEW,0.00,WeatherDisplay:10.37,2013-10-03 06:09:00,
2013-10-03 02:19:00,64.8,64.5,30.03,NNW,330,0.0,0.0,99,0.00,CLR,FEW,0.00,WeatherDisplay:10.37,2013-10-03 06:19:00,
2013-10-03 02:29:00,65.1,64.8,30.00,NNW,330,0.0,0.0,99,0.00,CLR,FEW,0.00,WeatherDisplay:10.37,2013-10-03 06:29:00,
2013-10-03 02:39:00,65.8,65.8,30.00,NNW,330,0.0,0.0,100,0.00,CLR,FEW,0.00,WeatherDisplay:10.37,2013-10-03 06:39:00,
2013-10-03 02:49:00,66.0,66.0,30.00,NNW,330,0.0,0.0,100,0.00,CLR,FEW,0.00,WeatherDisplay:10.37,2013-10-03 06:49:00,
2013-10-03 02:54:00,66.0,66.0,30.00,NNW,330,0.0,0.0,100,0.00,CLR,FEW,0.00,WeatherDisplay:10.37,2013-10-03 06:54:00,
2013-10-03 02:59:00,66.2,66.2,30.00,NNW,330,0.0,0.0,100,0.00,CLR,FEW,0.00,WeatherDisplay:10.37,2013-10-03 06:59:00,
2013-10-03 03:04:00,66.4,66.4,30.00,NNW,330,0.0,0.0,100,0.00,CLR,FEW,0.00,WeatherDisplay:10.37,2013-10-03 07:04:00,
2013-10-03 03:09:00,66.2,65.9,30.00,NNW,330,0.0,0.0,99,0.00,CLR,FEW,0.00,WeatherDisplay:10.37,2013-10-03 07:09:00,
2013-10-03 03:19:00,66.2,65.9,30.00,NNW,330,0.0,0.0,99,0.00,CLR,FEW,0.00,WeatherDisplay:10.37,2013-10-03 07:19:00,
2013-10-03 03:29:00,66.2,65.9,30.00,NNW,330,0.0,0.0,99,0.00,CLR,FEW,0.00,WeatherDisplay:10.37,2013-10-03 07:29:00,
2013-10-03 03:39:00,66.2,65.9,30.00,NNW,330,0.0,0.0,99,0.00,CLR,FEW,0.00,WeatherDisplay:10.37,2013-10-03 07:39:00,
2013-10-03 03:49:00,66.4,66.4,30.00,NNW,330,0.0,0.0,100,0.00,CLR,FEW,0.00,WeatherDisplay:10.37,2013-10-03 07:49:00,
2013-10-03 03:59:00,66.4,66.4,30.00,NNE,29,0.0,0.0,100,0.00,CLR,FEW,0.00,WeatherDisplay:10.37,2013-10-03 07:59:00,
2013-10-03 04:04:00,66.0,66.0,30.00,East,85,0.0,0.0,100,0.00,CLR,FEW,0.00,WeatherDisplay:10.37,2013-10-03 08:04:00,
2013-10-03 04:09:00,66.0,66.0,30.00,East,87,0.0,0.0,100,0.00,CLR,FEW,0.00,WeatherDisplay:10.37,2013-10-03 08:09:00,
2013-10-03 04:19:00,65.8,65.8,30.00,East,90,0.0,0.0,100,0.00,CLR,FEW,0.00,WeatherDisplay:10.37,2013-10-03 08:19:00,
2013-10-03 04:29:00,65.7,65.7,30.00,East,90,0.0,0.0,100,0.00,CLR,FEW,0.00,WeatherDisplay:10.37,2013-10-03 08:29:00,
2013-10-03 04:39:00,65.8,65.8,30.00,East,90,0.0,0.0,100,0.00,CLR,FEW,0.00,WeatherDisplay:10.37,2013-10-03 08:39:00,
2013-10-03 04:49:00,66.0,66.0,30.00,East,90,0.0,0.0,100,0.00,CLR,FEW,0.00,WeatherDisplay:10.37,2013-10-03 08:49:00,
2013-10-03 04:59:00,66.4,66.1,30.00,East,90,0.0,0.0,99,0.00,CLR,FEW,0.00,WeatherDisplay:10.37,2013-10-03 08:59:00,
2013-10-03 05:04:00,66.2,65.6,30.00,East,94,0.0,1.0,98,0.00,CLR,FEW,0.00,WeatherDisplay:10.37,2013-10-03 09:04:00,
2013-10-03 05:09:00,66.2,65.6,30.00,East,97,0.0,1.0,98,0.00,CLR,FEW,0.00,WeatherDisplay:10.37,2013-10-03 09:09:00,
2013-10-03 05:19:00,66.6,65.4,30.00,ESE,120,0.0,1.0,96,0.00,CLR,FEW,0.00,WeatherDisplay:10.37,2013-10-03 09:19:00,
2013-10-03 05:29:00,66.6,65.1,30.00,ESE,120,0.0,0.0,95,0.00,CLR,FEW,0.00,WeatherDisplay:10.37,2013-10-03 09:29:00,
2013-10-03 05:39:00,66.7,65.0,30.00,ESE,116,0.0,0.0,94,0.00,CLR,FEW,0.00,WeatherDisplay:10.37,2013-10-03 09:39:00,
2013-10-03 05:49:00,66.9,65.1,30.00,ESE,115,0.0,0.0,94,0.00,CLR,FEW,0.00,WeatherDisplay:10.37,2013-10-03 09:49:00,
2013-10-03 05:59:00,66.9,64.8,30.00,ESE,110,0.0,0.0,93,0.00,CLR,FEW,0.00,WeatherDisplay:10.37,2013-10-03 09:59:00,
2013-10-03 06:04:00,66.9,64.8,30.00,ESE,116,0.0,0.0,93,0.00,CLR,FEW,0.00,WeatherDisplay:10.37,2013-10-03 10:04:00,
2013-10-03 06:09:00,66.6,64.5,30.00,ESE,121,0.0,0.0,93,0.00,CLR,FEW,0.00,WeatherDisplay:10.37,2013-10-03 10:09:00,
2013-10-03 06:19:00,66.4,64.3,30.00,SE,125,0.0,0.0,93,0.00,CLR,FEW,0.00,WeatherDisplay:10.37,2013-10-03 10:19:00,
2013-10-03 06:24:00,66.2,64.1,30.00,SE,125,0.0,0.0,93,0.00,CLR,FEW,0.00,WeatherDisplay:10.37,2013-10-03 10:24:00,
2013-10-03 06:29:00,66.0,64.2,30.00,SE,125,0.0,0.0,94,0.00,CLR,FEW,0.00,WeatherDisplay:10.37,2013-10-03 10:29:00,
2013-10-03 06:39:00,65.8,64.1,30.00,SE,125,0.0,0.0,94,0.00,CLR,FEW,0.00,WeatherDisplay:10.37,2013-10-03 10:39:00,
2013-10-03 06:49:00,65.7,64.2,30.00,SE,125,0.0,0.0,95,0.00,CLR,FEW,0.00,WeatherDisplay:10.37,2013-10-03 10:49:00,
2013-10-03 06:54:00,65.7,64.2,30.00,SE,125,0.0,0.0,95,0.00,CLR,FEW,0.00,WeatherDisplay:10.37,2013-10-03 10:54:00,
2013-10-03 06:59:00,65.7,64.2,30.00,SE,125,0.0,0.0,95,0.00,CLR,FEW,0.00,WeatherDisplay:10.37,2013-10-03 10:59:00,
2013-10-03 07:04:00,65.7,64.2,30.00,SE,125,0.0,0.0,95,0.00,CLR,FEW,0.00,WeatherDisplay:10.37,2013-10-03 11:04:00,
2013-10-03 07:09:00,65.7,64.2,30.00,SE,125,0.0,0.0,95,0.00,CLR,FEW,0.00,WeatherDisplay:10.37,2013-10-03 11:09:00,
2013-10-03 07:19:00,65.7,64.5,30.00,SE,125,0.0,0.0,96,0.00,CLR,FEW,0.00,WeatherDisplay:10.37,2013-10-03 11:19:00,
2013-10-03 07:29:00,65.5,64.3,30.00,SE,125,0.0,0.0,96,0.00,CLR,FEW,0.00,WeatherDisplay:10.37,2013-10-03 11:29:00,
2013-10-03 07:39:00,65.7,64.5,30.00,SE,125,0.0,0.0,96,0.00,CLR,FEW,0.00,WeatherDisplay:10.37,2013-10-03 11:39:00,
2013-10-03 07:44:00,65.7,64.5,30.00,SE,125,0.0,0.0,96,0.00,CLR,FEW,0.00,WeatherDisplay:10.37,2013-10-03 11:44:00,
2013-10-03 07:49:00,65.8,64.7,30.00,SE,125,0.0,0.0,96,0.00,CLR,FEW,0.00,WeatherDisplay:10.37,2013-10-03 11:49:00,
2013-10-03 07:59:00,66.0,64.8,30.00,SE,125,0.0,0.0,96,0.00,CLR,FEW,0.00,WeatherDisplay:10.37,2013-10-03 11:59:00,
2013-10-03 08:04:00,66.0,64.8,30.00,SE,125,0.0,0.0,96,0.00,CLR,FEW,0.00,WeatherDisplay:10.37,2013-10-03 12:04:00,
2013-10-03 08:09:00,65.8,64.7,30.00,SE,125,0.0,0.0,96,0.00,CLR,FEW,0.00,WeatherDisplay:10.37,2013-10-03 12:09:00,
2013-10-03 08:19:00,66.0,65.1,30.00,SE,125,0.0,0.0,97,0.00,CLR,FEW,0.00,WeatherDisplay:10.37,2013-10-03 12:19:00,
2013-10-03 08:24:00,66.2,65.0,30.00,SE,125,0.0,0.0,96,0.00,CLR,FEW,0.00,WeatherDisplay:10.37,2013-10-03 12:24:00,
2013-10-03 08:29:00,66.4,65.5,30.00,SE,125,0.0,0.0,97,0.00,CLR,FEW,0.00,WeatherDisplay:10.37,2013-10-03 12:29:00,
2013-10-03 08:39:00,66.4,65.5,30.00,SE,125,0.0,0.0,97,0.00,CLR,FEW,0.00,WeatherDisplay:10.37,2013-10-03 12:39:00,
2013-10-03 08:49:00,66.9,66.0,30.00,SE,125,0.0,0.0,97,0.00,CLR,FEW,0.00,WeatherDisplay:10.37,2013-10-03 12:49:00,
2013-10-03 08:59:00,67.8,66.9,30.00,SE,125,0.0,0.0,97,0.00,CLR,FEW,0.00,WeatherDisplay:10.37,2013-10-03 12:59:00,
2013-10-03 09:04:00,68.0,67.1,30.00,SE,125,0.0,0.0,97,0.00,CLR,FEW,0.00,WeatherDisplay:10.37,2013-10-03 13:04:00,
2013-10-03 09:09:00,68.5,67.7,30.00,SE,125,0.0,0.0,97,0.00,CLR,FEW,0.00,WeatherDisplay:10.37,2013-10-03 13:09:00,
2013-10-03 09:19:00,69.8,68.9,30.00,SE,125,0.0,0.0,97,0.00,CLR,FEW,0.00,WeatherDisplay:10.37,2013-10-03 13:19:00,
2013-10-03 09:29:00,70.9,69.7,30.00,SE,125,10.0,50.0,96,0.00,CLR,FEW,0.00,WeatherDisplay:10.37,2013-10-03 13:29:00,
2013-10-03 09:39:00,71.8,70.0,30.00,SE,125,15.0,0.0,94,0.00,CLR,FEW,0.00,WeatherDisplay:10.37,2013-10-03 13:39:00,
2013-10-03 09:49:00,72.7,70.5,30.00,SE,125,2.0,0.0,93,0.00,CLR,FEW,0.00,WeatherDisplay:10.37,2013-10-03 13:49:00,
2013-10-03 09:59:00,73.2,70.4,30.00,South,185,0.0,1.0,91,0.00,CLR,FEW,0.00,WeatherDisplay:10.37,2013-10-03 13:59:00,
2013-10-03 10:04:00,73.4,70.3,30.00,SSW,205,0.0,0.0,90,0.00,CLR,FEW,0.00,WeatherDisplay:10.37,2013-10-03 14:04:00,
2013-10-03 10:09:00,73.9,70.8,30.00,SSW,207,0.0,1.0,90,0.00,CLR,FEW,0.00,WeatherDisplay:10.37,2013-10-03 14:09:00,
2013-10-03 10:19:00,74.8,71.0,30.00,SSE,160,0.0,1.0,88,0.00,CLR,FEW,0.00,WeatherDisplay:10.37,2013-10-03 14:19:00,
2013-10-03 10:29:00,75.4,70.9,30.00,SSW,203,0.0,0.0,86,0.00,CLR,FEW,0.00,WeatherDisplay:10.37,2013-10-03 14:29:00,
2013-10-03 10:34:00,75.6,70.4,30.00,West,268,0.0,0.0,84,0.00,CLR,FEW,0.00,WeatherDisplay:10.37,2013-10-03 14:34:00,
2013-10-03 10:39:00,76.5,71.3,30.00,West,265,0.0,1.0,84,0.00,CLR,FEW,0.00,WeatherDisplay:10.37,2013-10-03 14:39:00,
2013-10-03 10:49:00,78.4,70.2,30.00,SW,229,1.0,1.0,76,0.00,CLR,FEW,0.00,WeatherDisplay:10.37,2013-10-03 14:49:00,
2013-10-03 10:59:00,77.5,69.4,30.00,SW,220,1.0,1.0,76,0.00,CLR,FEW,0.00,WeatherDisplay:10.37,2013-10-03 14:59:00,
2013-10-03 11:04:00,77.7,69.9,30.00,SW,216,1.0,7.0,77,0.00,CLR,FEW,0.00,WeatherDisplay:10.37,2013-10-03 15:04:00,
2013-10-03 11:09:00,77.7,70.3,30.00,SSE,168,2.0,7.0,78,0.00,CLR,FEW,0.00,WeatherDisplay:10.37,2013-10-03 15:09:00,
2013-10-03 11:19:00,79.7,70.7,30.00,SSW,200,1.0,0.0,74,0.00,CLR,FEW,0.00,WeatherDisplay:10.37,2013-10-03 15:19:00,
2013-10-03 11:29:00,78.8,70.2,30.00,SSW,200,0.0,0.0,75,0.00,CLR,FEW,0.00,WeatherDisplay:10.37,2013-10-03 15:29:00,
2013-10-03 11:39:00,78.3,70.1,30.00,SSW,200,0.0,1.0,76,0.00,CLR,FEW,0.00,WeatherDisplay:10.37,2013-10-03 15:39:00,
2013-10-03 11:49:00,78.8,70.6,30.00,South,189,1.0,1.0,76,0.00,CLR,FEW,0.00,WeatherDisplay:10.37,2013-10-03 15:49:00,
2013-10-03 11:59:00,79.5,70.5,30.00,SSW,201,1.0,3.0,74,0.00,CLR,FEW,0.00,WeatherDisplay:10.37,2013-10-03 15:59:00,
2013-10-03 12:09:00,81.1,71.3,30.00,SSW,202,2.0,6.0,72,0.00,CLR,FEW,0.00,WeatherDisplay:10.37,2013-10-03 16:09:00,
2013-10-03 12:19:00,81.3,70.6,30.00,WSW,255,6.0,9.0,70,0.00,CLR,FEW,0.00,WeatherDisplay:10.37,2013-10-03 16:19:00,
2013-10-03 12:24:00,81.7,70.9,30.00,West,278,7.0,8.0,70,0.00,CLR,FEW,0.00,WeatherDisplay:10.37,2013-10-03 16:24:00,
2013-10-03 12:29:00,81.3,70.6,30.00,WNW,290,7.0,8.0,70,0.00,CLR,FEW,0.00,WeatherDisplay:10.37,2013-10-03 16:29:00,
2013-10-03 12:39:00,81.3,70.6,29.97,SSW,203,8.0,8.0,70,0.00,CLR,FEW,0.00,WeatherDisplay:10.37,2013-10-03 16:39:00,
2013-10-03 12:44:00,80.6,69.5,29.97,South,187,6.0,6.0,69,0.00,CLR,FEW,0.00,WeatherDisplay:10.37,2013-10-03 16:44:00,
2013-10-03 12:49:00,80.4,70.2,29.97,South,190,5.0,5.0,71,0.00,CLR,FEW,0.00,WeatherDisplay:10.37,2013-10-03 16:49:00,
2013-10-03 12:59:00,79.7,70.7,29.97,SSW,202,1.0,6.0,74,0.00,CLR,FEW,0.00,WeatherDisplay:10.37,2013-10-03 16:59:00,
2013-10-03 13:04:00,79.7,70.7,29.97,SW,230,1.0,5.0,74,0.00,CLR,FEW,0.00,WeatherDisplay:10.37,2013-10-03 17:04:00,
2013-10-03 13:09:00,79.9,70.8,29.97,SW,230,1.0,0.0,74,0.00,CLR,FEW,0.00,WeatherDisplay:10.37,2013-10-03 17:09:00,
2013-10-03 13:19:00,79.5,70.5,29.97,SW,227,1.0,3.0,74,0.00,CLR,FEW,0.00,WeatherDisplay:10.37,2013-10-03 17:19:00,
2013-10-03 13:29:00,79.3,70.7,29.97,SW,231,1.0,1.0,75,0.00,CLR,FEW,0.00,WeatherDisplay:10.37,2013-10-03 17:29:00,
2013-10-03 13:39:00,79.3,70.7,29.97,SW,225,1.0,0.0,75,0.00,CLR,FEW,0.00,WeatherDisplay:10.37,2013-10-03 17:39:00,
2013-10-03 13:44:00,79.7,71.1,29.97,SW,225,1.0,1.0,75,0.00,CLR,FEW,0.00,WeatherDisplay:10.37,2013-10-03 17:44:00,
2013-10-03 13:49:00,79.3,70.7,29.97,WSW,256,1.0,1.0,75,0.00,CLR,FEW,0.00,WeatherDisplay:10.37,2013-10-03 17:49:00,
2013-10-03 13:59:00,78.1,70.7,29.97,SSW,210,0.0,0.0,78,0.00,CLR,FEW,0.00,WeatherDisplay:10.37,2013-10-03 17:59:00,
2013-10-03 14:04:00,77.5,71.6,29.97,WSW,257,0.0,0.0,82,0.01,RA,FEW,0.04,WeatherDisplay:10.37,2013-10-03 18:04:00,
2013-10-03 14:09:00,76.8,71.6,29.97,West,275,0.0,0.0,84,0.00,RA,FEW,0.04,WeatherDisplay:10.37,2013-10-03 18:09:00,
2013-10-03 14:19:00,77.5,74.0,29.97,West,275,0.0,0.0,89,0.00,RA,FEW,0.07,WeatherDisplay:10.37,2013-10-03 18:19:00,
2013-10-03 14:24:00,77.5,74.0,29.97,West,275,0.0,0.0,89,0.00,RA,FEW,0.07,WeatherDisplay:10.37,2013-10-03 18:24:00,
2013-10-03 14:29:00,77.7,74.6,29.94,West,275,0.0,0.0,90,0.00,CLR,FEW,0.07,WeatherDisplay:10.37,2013-10-03 18:29:00,
2013-10-03 14:39:00,77.4,74.2,29.94,West,275,0.0,0.0,90,0.00,CLR,FEW,0.07,WeatherDisplay:10.37,2013-10-03 18:39:00,
2013-10-03 14:49:00,78.3,75.1,29.94,West,273,0.0,1.0,90,0.00,CLR,FEW,0.07,WeatherDisplay:10.37,2013-10-03 18:49:00,
2013-10-03 14:59:00,78.4,74.9,29.94,West,263,0.0,0.0,89,0.00,CLR,FEW,0.07,WeatherDisplay:10.37,2013-10-03 18:59:00,
2013-10-03 15:04:00,78.3,74.7,29.94,West,260,0.0,0.0,89,0.00,CLR,FEW,0.07,WeatherDisplay:10.37,2013-10-03 19:04:00,
2013-10-03 15:09:00,78.4,74.9,29.94,WSW,256,0.0,1.0,89,0.00,CLR,FEW,0.07,WeatherDisplay:10.37,2013-10-03 19:09:00,
2013-10-03 15:19:00,78.3,74.1,29.94,WSW,258,1.0,2.0,87,0.00,CLR,FEW,0.07,WeatherDisplay:10.37,2013-10-03 19:19:00,
2013-10-03 15:29:00,78.6,73.0,29.94,West,270,2.0,2.0,83,0.00,CLR,FEW,0.07,WeatherDisplay:10.37,2013-10-03 19:29:00,
2013-10-03 15:39:00,78.8,71.7,29.94,SW,225,1.0,1.0,79,0.00,CLR,FEW,0.07,WeatherDisplay:10.37,2013-10-03 19:39:00,
2013-10-03 15:49:00,79.2,71.7,29.94,WSW,239,1.0,3.0,78,0.00,CLR,FEW,0.07,WeatherDisplay:10.37,2013-10-03 19:49:00,
2013-10-03 15:59:00,78.8,70.6,29.94,SSE,155,1.0,1.0,76,0.00,CLR,FEW,0.07,WeatherDisplay:10.37,2013-10-03 19:59:00,
2013-10-03 16:04:00,79.7,70.3,29.94,SSE,155,1.0,1.0,73,0.00,CLR,FEW,0.07,WeatherDisplay:10.37,2013-10-03 20:04:00,
2013-10-03 16:09:00,78.8,69.0,29.94,South,184,1.0,7.0,72,0.00,CLR,FEW,0.07,WeatherDisplay:10.37,2013-10-03 20:09:00,
2013-10-03 16:19:00,78.6,69.2,29.94,WSW,247,6.0,11.0,73,0.00,CLR,FEW,0.07,WeatherDisplay:10.37,2013-10-03 20:19:00,
2013-10-03 16:29:00,78.8,69.8,29.94,West,261,7.0,7.0,74,0.00,CLR,FEW,0.07,WeatherDisplay:10.37,2013-10-03 20:29:00,
2013-10-03 16:39:00,78.4,69.5,29.94,SSW,193,5.0,5.0,74,0.00,CLR,FEW,0.07,WeatherDisplay:10.37,2013-10-03 20:39:00,
2013-10-03 16:49:00,78.3,70.1,29.94,South,185,0.0,1.0,76,0.00,CLR,FEW,0.07,WeatherDisplay:10.37,2013-10-03 20:49:00,
2013-10-03 16:59:00,77.5,69.4,29.94,SSW,210,0.0,0.0,76,0.00,CLR,FEW,0.07,WeatherDisplay:10.37,2013-10-03 20:59:00,
2013-10-03 17:04:00,76.8,69.4,29.94,SW,230,0.0,1.0,78,0.00,CLR,FEW,0.07,WeatherDisplay:10.37,2013-10-03 21:04:00,
2013-10-03 17:09:00,76.5,69.1,29.94,WSW,250,0.0,1.0,78,0.00,CLR,FEW,0.07,WeatherDisplay:10.37,2013-10-03 21:09:00,
2013-10-03 17:19:00,76.1,69.5,29.94,WSW,244,1.0,1.0,80,0.00,CLR,FEW,0.07,WeatherDisplay:10.37,2013-10-03 21:19:00,
2013-10-03 17:29:00,75.4,70.2,29.94,SW,235,0.0,0.0,84,0.00,RA,FEW,0.09,WeatherDisplay:10.37,2013-10-03 21:29:00,
2013-10-03 17:39:00,75.0,70.9,29.94,WSW,240,0.0,0.0,87,0.00,CLR,FEW,0.09,WeatherDisplay:10.37,2013-10-03 21:39:00,
2013-10-03 17:44:00,75.0,71.2,29.94,WSW,240,0.0,0.0,88,0.00,CLR,FEW,0.09,WeatherDisplay:10.37,2013-10-03 21:44:00,
2013-10-03 17:49:00,75.0,71.2,29.94,WSW,240,0.0,0.0,88,0.00,CLR,FEW,0.09,WeatherDisplay:10.37,2013-10-03 21:49:00,
2013-10-03 17:59:00,75.2,71.7,29.94,WSW,240,0.0,0.0,89,0.00,CLR,FEW,0.09,WeatherDisplay:10.37,2013-10-03 21:59:00,
2013-10-03 18:04:00,74.8,71.4,29.94,WSW,240,0.0,0.0,89,0.00,CLR,FEW,0.09,WeatherDisplay:10.37,2013-10-03 22:04:00,
2013-10-03 18:09:00,74.8,71.7,29.94,WSW,240,0.0,0.0,90,0.00,CLR,FEW,0.09,WeatherDisplay:10.37,2013-10-03 22:09:00,
2013-10-03 18:19:00,75.0,71.9,29.94,WSW,240,0.0,0.0,90,0.00,CLR,FEW,0.09,WeatherDisplay:10.37,2013-10-03 22:19:00,
2013-10-03 18:24:00,74.8,71.7,29.94,WSW,240,0.0,0.0,90,0.00,CLR,FEW,0.09,WeatherDisplay:10.37,2013-10-03 22:24:00,
2013-10-03 18:29:00,74.7,71.2,29.94,SW,232,0.0,1.0,89,0.00,CLR,FEW,0.09,WeatherDisplay:10.37,2013-10-03 22:29:00,
2013-10-03 18:39:00,74.5,71.0,29.94,SW,220,0.0,1.0,89,0.00,CLR,FEW,0.09,WeatherDisplay:10.37,2013-10-03 22:39:00,
2013-10-03 18:49:00,73.9,70.5,29.94,WSW,240,1.0,1.0,89,0.00,CLR,FEW,0.09,WeatherDisplay:10.37,2013-10-03 22:49:00,
2013-10-03 18:59:00,73.6,70.1,29.94,SSW,210,1.0,0.0,89,0.00,CLR,FEW,0.09,WeatherDisplay:10.37,2013-10-03 22:59:00,
2013-10-03 19:04:00,73.6,70.1,29.94,SSW,210,0.0,0.0,89,0.00,CLR,FEW,0.09,WeatherDisplay:10.37,2013-10-03 23:04:00,
2013-10-03 19:09:00,73.2,69.8,29.94,SSW,210,0.0,0.0,89,0.00,CLR,FEW,0.09,WeatherDisplay:10.37,2013-10-03 23:09:00,
2013-10-03 19:19:00,72.5,69.1,29.94,SSW,210,0.0,0.0,89,0.00,CLR,FEW,0.09,WeatherDisplay:10.37,2013-10-03 23:19:00,
2013-10-03 19:29:00,72.3,69.2,29.94,SSW,205,0.0,0.0,90,0.00,CLR,FEW,0.09,WeatherDisplay:10.37,2013-10-03 23:29:00,
2013-10-03 19:39:00,72.1,69.4,29.94,South,172,0.0,0.0,91,0.00,CLR,FEW,0.09,WeatherDisplay:10.37,2013-10-03 23:39:00,
2013-10-03 19:49:00,71.6,68.8,29.94,SW,228,0.0,0.0,91,0.00,CLR,FEW,0.09,WeatherDisplay:10.37,2013-10-03 23:49:00,
2013-10-03 19:54:00,71.6,68.8,29.94,SW,226,0.0,0.0,91,0.00,CLR,FEW,0.09,WeatherDisplay:10.37,2013-10-03 23:54:00,
2013-10-03 19:59:00,71.2,68.5,29.94,SW,225,0.0,0.0,91,0.00,CLR,FEW,0.09,WeatherDisplay:10.37,2013-10-03 23:59:00,
2013-10-03 20:04:00,71.2,68.5,29.94,SW,225,0.0,0.0,91,0.00,CLR,FEW,0.09,WeatherDisplay:10.37,2013-10-04 00:04:00,
2013-10-03 20:09:00,70.9,68.1,29.94,SW,225,0.0,0.0,91,0.00,CLR,FEW,0.09,WeatherDisplay:10.37,2013-10-04 00:09:00,
2013-10-03 20:19:00,70.5,68.1,29.94,SSW,198,0.0,0.0,92,0.00,CLR,FEW,0.09,WeatherDisplay:10.37,2013-10-04 00:19:00,
2013-10-03 20:29:00,70.3,68.2,29.94,South,183,0.0,0.0,93,0.00,CLR,FEW,0.09,WeatherDisplay:10.37,2013-10-04 00:29:00,
2013-10-03 20:39:00,70.5,68.4,29.94,South,180,0.0,0.0,93,0.00,CLR,FEW,0.09,WeatherDisplay:10.37,2013-10-04 00:39:00,
2013-10-03 20:49:00,70.7,68.6,29.94,SSW,199,0.0,0.0,93,0.00,CLR,FEW,0.09,WeatherDisplay:10.37,2013-10-04 00:49:00,
2013-10-03 20:59:00,70.7,68.3,29.94,SW,220,0.0,0.0,92,0.00,CLR,FEW,0.09,WeatherDisplay:10.37,2013-10-04 00:59:00,
2013-10-03 21:04:00,70.9,68.1,29.94,SW,220,0.0,1.0,91,0.00,CLR,FEW,0.09,WeatherDisplay:10.37,2013-10-04 01:04:00,
2013-10-03 21:09:00,70.7,67.9,29.94,SW,220,0.0,1.0,91,0.00,CLR,FEW,0.09,WeatherDisplay:10.37,2013-10-04 01:09:00,
2013-10-03 21:19:00,70.7,68.3,29.94,SSE,155,0.0,0.0,92,0.00,CLR,FEW,0.09,WeatherDisplay:10.37,2013-10-04 01:19:00,
2013-10-03 21:29:00,70.5,68.1,29.94,SSE,155,0.0,0.0,92,0.00,CLR,FEW,0.09,WeatherDisplay:10.37,2013-10-04 01:29:00,
2013-10-03 21:39:00,70.5,68.4,29.97,SSE,155,0.0,0.0,93,0.00,CLR,FEW,0.09,WeatherDisplay:10.37,2013-10-04 01:39:00,
2013-10-03 21:49:00,70.3,68.5,29.97,SSE,155,0.0,0.0,94,0.00,CLR,FEW,0.09,WeatherDisplay:10.37,2013-10-04 01:49:00,
2013-10-03 21:54:00,70.3,68.5,29.97,SSE,155,0.0,0.0,94,0.00,CLR,FEW,0.09,WeatherDisplay:10.37,2013-10-04 01:54:00,
2013-10-03 21:59:00,70.2,68.4,29.97,SSE,155,0.0,0.0,94,0.00,CLR,FEW,0.09,WeatherDisplay:10.37,2013-10-04 01:59:00,
2013-10-03 22:04:00,69.8,68.0,29.97,SSE,155,0.0,0.0,94,0.00,CLR,FEW,0.09,WeatherDisplay:10.37,2013-10-04 02:04:00,
2013-10-03 22:09:00,69.4,67.6,29.97,SSE,155,0.0,0.0,94,0.00,CLR,FEW,0.09,WeatherDisplay:10.37,2013-10-04 02:09:00,
2013-10-03 22:19:00,69.1,67.9,29.97,SSE,155,0.0,0.0,96,0.00,CLR,FEW,0.09,WeatherDisplay:10.37,2013-10-04 02:19:00,
2013-10-03 22:24:00,68.9,67.7,29.97,SSE,155,0.0,0.0,96,0.00,CLR,FEW,0.09,WeatherDisplay:10.37,2013-10-04 02:24:00,
2013-10-03 22:29:00,68.9,68.0,29.97,SSE,155,0.0,0.0,97,0.00,CLR,FEW,0.09,WeatherDisplay:10.37,2013-10-04 02:29:00,
2013-10-03 22:39:00,68.7,67.8,29.97,SSE,155,0.0,0.0,97,0.00,CLR,FEW,0.09,WeatherDisplay:10.37,2013-10-04 02:39:00,
2013-10-03 22:49:00,68.7,68.1,29.97,SSE,155,0.0,0.0,98,0.00,CLR,FEW,0.09,WeatherDisplay:10.37,2013-10-04 02:49:00,
2013-10-03 22:54:00,68.7,68.1,29.97,SSE,155,0.0,0.0,98,0.00,CLR,FEW,0.09,WeatherDisplay:10.37,2013-10-04 02:54:00,
2013-10-03 22:59:00,68.7,68.4,29.97,SSE,155,0.0,0.0,99,0.00,CLR,FEW,0.09,WeatherDisplay:10.37,2013-10-04 02:59:00,
2013-10-03 23:04:00,68.7,68.4,29.97,SSE,155,0.0,0.0,99,0.00,CLR,FEW,0.09,WeatherDisplay:10.37,2013-10-04 03:04:00,
2013-10-03 23:09:00,68.9,68.6,29.97,SSE,155,0.0,0.0,99,0.00,CLR,FEW,0.09,WeatherDisplay:10.37,2013-10-04 03:09:00,
2013-10-03 23:19:00,68.7,68.4,29.97,SSE,155,0.0,0.0,99,0.00,CLR,FEW,0.09,WeatherDisplay:10.37,2013-10-04 03:19:00,
2013-10-03 23:29:00,68.9,68.6,29.97,SSE,155,0.0,0.0,99,0.00,CLR,FEW,0.09,WeatherDisplay:10.37,2013-10-04 03:29:00,
2013-10-03 23:39:00,68.9,68.6,29.97,SSE,155,0.0,0.0,99,0.00,CLR,FEW,0.09,WeatherDisplay:10.37,2013-10-04 03:39:00,
2013-10-03 23:49:00,69.3,69.3,29.97,SSE,155,0.0,0.0,100,0.01,RA,FEW,0.10,WeatherDisplay:10.37,2013-10-04 03:49:00,